This demonstration page uses our WeatherBlox Daily Observations layout. Learn more.

Left ArrowRight Arrow

Hourly Observations for May 23, 2019

Temp ( °F °C ) Dew Point ( °F °C ) Humidity (%) Winds ( mph kmh ) Pressure ( in mb ) Visibility ( mi km ) Precip ( " mm )
12:15 am 00:15 Clear 48 9 41 4.8 75 75 WNW 8 13 30.00 1016 10 16 N/A
12:35 am 00:35 Clear 47 8.4 40 4.7 78 78 NW 6 9 30.00 1016 10 16 N/A
12:55 am 00:55 Clear 47 8.3 41 5 80 80 NNW 9 15 29.98 1015 10 16 N/A
1:15 am 01:15 Clear 47 8.5 40 4.7 77 77 WNW 6 9 30.00 1016 10 16 N/A
1:35 am 01:35 Clear 46 7.9 40 4.6 80 80 W 7 11 30.02 1017 10 16 N/A
1:55 am 01:55 Clear 45 7.1 40 4.6 84 84 W 8 13 30.05 1018 10 16 N/A
2:15 am 02:15 Clear 46 8 40 4.5 79 79 W 9 15 30.06 1018 10 16 N/A
2:35 am 02:35 Clear 47 8.2 40 4.3 77 77 NW 7 11 30.04 1017 10 16 N/A
2:55 am 02:55 Clear 44 6.7 39 4.1 84 84 WNW 5 7 30.05 1018 10 16 N/A
3:15 am 03:15 Clear 45 7.2 40 4.3 82 82 NW 6 9 30.05 1018 10 16 N/A
3:35 am 03:35 Mostly Cloudy 45 7.2 40 4.5 83 83 WNW 5 7 30.07 1018 10 16 N/A
3:55 am 03:55 Mostly Cloudy 45 7.3 40 4.5 83 83 NNW 9 15 30.04 1017 10 16 N/A
4:15 am 04:15 Mostly Cloudy 46 7.8 40 4.7 81 81 NNW 8 13 30.05 1018 10 16 N/A
4:35 am 04:35 Cloudy 46 8 40 4.7 80 80 NNW 8 13 30.07 1018 10 16 N/A
4:55 am 04:55 Cloudy 46 7.9 41 5 82 82 NW 7 11 30.08 1019 10 16 N/A
5:15 am 05:15 Cloudy 46 7.8 41 5.1 83 83 WNW 3 6 30.10 1019 10 16 N/A
5:35 am 05:35 Cloudy 46 7.5 41 5.1 85 85 NW 3 6 30.11 1019 10 16 N/A
5:55 am 05:55 Cloudy 45 7.2 41 5.2 87 87 NW 3 6 30.12 1020 10 16 N/A
6:15 am 06:15 Mostly Cloudy 44 6.8 41 5.1 89 89 NW 3 6 30.12 1020 10 16 N/A
6:35 am 06:35 Mostly Cloudy 44 6.6 41 5.2 91 91 NNW 7 11 30.12 1020 10 16 N/A
6:55 am 06:55 Cloudy 45 7 42 5.6 91 91 NW 3 6 30.14 1021 10 16 N/A
7:15 am 07:15 Cloudy 45 7.2 43 5.9 92 92 N 3 6 30.13 1020 10 16 N/A
7:35 am 07:35 Mostly Cloudy 47 8.1 43 6 87 87 N 5 7 30.13 1020 10 16 N/A
7:55 am 07:55 Mostly Cloudy 47 8.2 43 6.1 87 87 N 5 7 30.13 1020 10 16 N/A
8:15 am 08:15 Mostly Cloudy 49 9.3 44 6.6 83 83 NNE 8 13 30.11 1020 10 16 N/A
8:35 am 08:35 Cloudy 50 10 45 7 82 82 NNE 8 13 30.11 1020 10 16 N/A
8:55 am 08:55 Mostly Cloudy 51 10.4 45 7 80 80 NNE 9 15 30.11 1020 10 16 N/A
9:15 am 09:15 Cloudy 52 11 45 7.1 77 77 NE 8 13 30.11 1020 10 16 N/A
9:35 am 09:35 Cloudy 53 11.5 45 7.3 76 76 NE 10 17 30.11 1020 10 16 N/A
9:55 am 09:55 Cloudy 54 12.1 45 7.3 73 73 NE 9 15 30.11 1020 10 16 N/A
10:15 am 10:15 Cloudy 54 12.2 45 7.4 73 73 ENE 7 11 30.11 1020 10 16 N/A
10:35 am 10:35 Cloudy 54 12.4 45 7.4 72 72 ENE 7 11 30.13 1020 10 16 N/A
10:55 am 10:55 Cloudy 54 12.4 46 7.5 72 72 NE 12 19 30.10 1019 10 16 N/A
11:15 am 11:15 Cloudy 57 13.7 47 8.6 72 72 NE 12 19 30.09 1019 10 16 N/A
11:35 am 11:35 Cloudy 56 13.1 46 7.7 70 70 NE 13 20 30.08 1018 10 16 N/A
11:55 am 11:55 Cloudy 56 13.6 45 7.1 65 65 E 12 19 30.11 1020 10 16 N/A
12:15 pm 12:15 Mostly Cloudy 56 13.6 46 7.6 67 67 E 9 15 30.10 1019 10 16 N/A
12:35 pm 12:35 Cloudy 55 12.7 45 7 69 69 E 6 9 30.13 1020 10 16 N/A
12:55 pm 12:55 Cloudy with Strong Thunderstorms 53 11.9 47 8.4 79 79 N N/A 30.15 1021 2 2 0.13 3.30
1:15 pm 13:15 Cloudy with Strong Thunderstorms 51 10.7 48 9 89 89 WNW 5 7 30.18 1022 5 8 0.07 1.78
1:35 pm 13:35 Cloudy with Strong Thunderstorms 50 10.2 49 9.5 95 95 N N/A 30.22 1023 3 5 0.16 4.06
1:55 pm 13:55 Cloudy with Nearby Thunderstorms 50 9.8 49 9.6 99 99 NNE 15 24 30.09 1019 5 8 0.25 6.35
2:15 pm 14:15 Mostly Cloudy 51 10.5 51 10.5 100 100 NE 21 33 30.02 1017 10 16 0.01 0.25
2:35 pm 14:35 Partly Cloudy 51 10.8 50 10.2 96 96 ENE 16 26 30.05 1017 10 16 0.01 0.25
2:55 pm 14:55 Sunny 53 11.7 51 10.5 92 92 NE 16 26 30.04 1017 10 16 0.01 0.25
3:15 pm 15:15 Mostly Cloudy 53 11.5 50 10 91 91 NE 15 24 30.03 1017 10 16 N/A
3:35 pm 15:35 Cloudy 53 11.4 49 9.7 89 89 ENE 18 30 30.00 1016 10 16 N/A
3:55 pm 15:55 Cloudy 53 11.5 50 9.9 90 90 NE 13 20 30.04 1017 10 16 N/A
4:15 pm 16:15 Cloudy 53 11.5 50 10 91 91 NE 13 20 30.03 1017 10 16 N/A
4:35 pm 16:35 Cloudy 53 11.5 50 10.1 91 91 NE 14 22 30.01 1016 10 16 N/A
4:55 pm 16:55 Cloudy 53 11.5 51 10.5 94 94 ENE 15 24 30.01 1016 10 16 N/A
5:15 pm 17:15 Cloudy with Light Rain 53 11.8 51 10.6 92 92 ENE 15 24 30.00 1016 10 16 N/A
5:35 pm 17:35 Cloudy with Light Rain 52 11.3 51 10.5 95 95 ENE 13 20 30.00 1016 10 16 N/A
5:55 pm 17:55 Cloudy with Light Rain 52 11.2 51 10.7 97 97 ENE 17 28 29.97 1015 10 16 0.01 0.25
6:15 pm 18:15 Cloudy with Nearby Thunderstorms 52 11.2 51 10.6 96 96 ENE 18 30 29.95 1014 10 16 N/A
6:35 pm 18:35 Cloudy with Thunderstorms 52 11 51 10.4 96 96 ESE 12 19 29.97 1015 10 16 N/A
6:55 pm 18:55 Cloudy with Thunderstorms 51 10.8 51 10.5 98 98 NE 12 19 29.96 1014 10 16 0.05 1.27
7:15 pm 19:15 Cloudy with Strong Thunderstorms 51 10.7 51 10.5 99 99 ENE 17 28 29.95 1014 2 3 0.18 4.57
7:35 pm 19:35 Cloudy with Thunderstorms 51 10.5 51 10.5 100 100 NE 10 17 29.97 1015 5 8 0.39 9.91
7:55 pm 19:55 Cloudy 51 10.5 51 10.5 100 100 NE 13 20 29.96 1015 10 16 0.41 10.41
8:15 pm 20:15 Cloudy with Nearby Thunderstorms 51 10.5 51 10.5 100 100 NE 13 20 29.96 1015 10 16 N/A
8:35 pm 20:35 Cloudy with Light Rain 51 10.4 51 10.4 100 100 NNE 8 13 29.97 1015 7 11 0.02 0.51
8:55 pm 20:55 Cloudy 51 10.3 51 10.3 100 100 NE 12 19 29.94 1014 10 16 0.02 0.51
9:35 pm 21:35 Cloudy with Light Rain 51 10.3 51 10.3 100 100 ENE 15 24 29.95 1014 7 11 0.01 0.25
9:55 pm 21:55 Cloudy with Light Rain 51 10.3 51 10.3 100 100 E 17 28 29.94 1014 7 11 0.03 0.76
10:15 pm 22:15 Cloudy with Light Rain 51 10.3 51 10.3 100 100 E 18 30 29.87 1012 7 11 0.02 0.51
10:35 pm 22:35 Cloudy 51 10.6 51 10.6 100 100 NNE 12 19 29.90 1012 10 16 0.02 0.51
10:55 pm 22:55 Cloudy 51 10.7 51 10.7 100 100 ENE 15 24 29.92 1013 10 16 0.02 0.51
11:15 pm 23:15 Cloudy with Thunderstorms 51 10.8 51 10.8 100 100 E 17 28 29.90 1012 4 6 0.07 1.78
11:35 pm 23:35 Cloudy 52 11 52 11 100 100 E 16 26 29.88 1012 10 16 0.07 1.78
11:55 pm 23:55 Cloudy 51 10.8 51 10.8 100 100 E 13 20 29.89 1012 7 11 0.07 1.78

Powered by AerisWeather